Flag for Poland Weather past 2 weeks in Katowice, Poland

Now
57 °F

Fog.


Feels Like: 56 °F
Forecast: 46 / 59 °F
Wind: 7 mph from Northeast

Location: Katowice Airport

Current Time: Oct 2, 2014 at 2:42:13 AM

Latest Report: Oct 2, 2014 at 2:00 AM


Visibility: 1 mi

Pressure: 30.30 "Hg

Humidity: 100%

Dew point: 57 °F

Location of KatowiceLocation

Historic Weather in Katowice — Graph

°F

Katowice temperature yesterday

Maximum temperature yesterday: 63 °F (at 3:00 PM)
Minimum temperature yesterday: 57 °F (at 4:00 AM)
Average temperature yesterday: 59 °F

Past Weeks' High & Low Weather Summary

 TemperatureHumidityPressure
High73 °F (Sep 19, 3:00 PM)100% (Sep 18, 5:30 AM)30.42 "Hg (Sep 18, 5:30 AM)
Low32 °F (Sep 24, 5:30 AM)38% (Sep 19, 1:00 PM)29.71 "Hg (Sep 22, 3:30 AM)
Average56 °F83%30.09 "Hg
* Reported Sep 17 1:00 AM — Oct 2 1:30 AM, Katowice, Weather by CustomWeather, © 2014

Note: Actual official high and low records may vary slightly from our data, if they occured in-between our weather recording intervals... More about our weather records

Advertising

Katowice weather history for previous 24 hours

 ConditionsComfort  
Time TempWeatherWind HumidityBarometerVisibility
1:30 AM
Oct 2
57 °FFog.3 mph100%30.30 "Hg1 mi
1:00 AM57 °FFog.6 mph100%30.30 "Hg2 mi
12:30 AM57 °FFog.2 mph100%30.30 "Hg1 mi
12:00 AM57 °FFog.3 mph100%30.30 "Hg1 mi
11:30 PM
Oct 1
57 °FFog.2 mph100%30.30 "Hg1 mi
11:00 PM59 °FFog.5 mph94%30.30 "Hg1 mi
10:30 PM59 °FFog.6 mph94%30.30 "Hg1 mi
10:00 PM59 °FFog.6 mph94%30.30 "Hg1 mi
9:30 PM59 °FFog.5 mph94%30.30 "Hg1 mi
9:00 PM59 °FFog.5 mph94%30.30 "Hg2 mi
8:30 PM59 °FFog.6 mph94%30.30 "Hg2 mi
8:00 PM59 °FFog.6 mph94%30.30 "Hg3 mi
7:30 PM59 °FPassing clouds.6 mph100%30.30 "Hg4 mi
7:00 PM59 °FPartly sunny.6 mph100%30.27 "Hg4 mi
6:30 PM59 °FFog.6 mph100%30.27 "Hg3 mi
6:00 PM61 °FBroken clouds.6 mph94%30.27 "Hg4 mi
5:30 PM61 °FPartly sunny.7 mph94%30.27 "Hg5 mi
5:00 PM61 °FPartly sunny.6 mph94%30.27 "Hg5 mi
4:30 PM61 °FBroken clouds.7 mph94%30.27 "Hg5 mi
4:00 PM63 °FBroken clouds.6 mph88%30.27 "Hg6 mi
3:30 PM63 °FBroken clouds.5 mph88%30.27 "Hg6 mi
3:00 PM63 °FBroken clouds.3 mph88%30.27 "Hg5 mi
2:30 PM61 °FBroken clouds.5 mph94%30.27 "Hg4 mi
2:00 PM61 °FBroken clouds.5 mph94%30.27 "Hg4 mi
1:30 PM61 °FFog.5 mph94%30.27 "Hg3 mi
1:00 PM59 °FDrizzle. Fog.7 mph100%30.30 "Hg2 mi
12:30 PM61 °FFog.5 mph94%30.30 "Hg3 mi
12:00 PM59 °FFog.5 mph100%30.30 "Hg2 mi
11:30 AM59 °FFog.2 mph100%30.30 "Hg2 mi
11:00 AM59 °FFog.5 mph100%30.30 "Hg1 mi
10:30 AM59 °FFog.3 mph100%30.27 "Hg2 mi
10:00 AM59 °FFog.5 mph100%30.27 "Hg1 mi
9:30 AM59 °FFog.5 mph100%30.27 "Hg1 mi
9:00 AM59 °FFog.3 mph100%30.27 "Hg1 mi
8:30 AM59 °FFog.2 mph100%30.27 "Hg1 mi
8:00 AM59 °FSleet. Cloudy.1 mph94%30.27 "Hg1 mi
7:30 AM57 °FFog.3 mph100%30.24 "Hg0 mi
7:00 AM57 °FFog.No wind100%30.27 "Hg1 mi
6:30 AM57 °FFog.No wind100%30.24 "Hg0 mi
6:00 AM59 °FFog.No wind94%30.24 "Hg1 mi
5:30 AM59 °FFog.No wind94%30.24 "Hg1 mi
5:00 AM57 °FFog.No wind100%30.27 "Hg0 mi
4:30 AM57 °FFog.2 mph100%30.27 "Hg0 mi
4:00 AM57 °FFog.No wind100%30.27 "Hg1 mi
3:30 AM59 °FFog.1 mph94%30.24 "Hg1 mi
3:00 AM59 °FFog.3 mph100%30.24 "Hg1 mi
2:30 AM59 °FFog.3 mph100%30.24 "Hg1 mi
2:00 AM59 °FLight rain. Fog.5 mph100%30.27 "Hg1 mi
Weather by CustomWeather, © 2014

See weather overviewHow to use our weather pages